Location: Mirande
(43.5139°N, 0.4029°E)
Time: 08:35:17
(UTC+00:00)

Daily predictions for brighter satellites

Satellite Brightness Start Highest point End
(mag) Time Altitude Azimuth Time Altitude Azimuth Time Altitude Azimuth
Cosmos 1110 Rocket 4.4 18:42:53 10° N 18:47:57 46° ENE 18:52:56 10° SE
Cosmos 332 Rocket 3.9 18:44:20 10° NNW 18:49:15 65° ENE 18:54:07 10° SSE
SL-16 R/B 2.9 18:45:05 10° SSE 18:49:57 30° ESE 18:54:49 10° NE
STARLINK-1072 4.5 18:46:24 10° NW 18:50:08 36° NNE 18:53:51 10° E
Cosmos 2333 Rocket 3.9 18:44:58 10° SW 18:50:14 38° WNW 18:55:31 10° NNE
STARLINK-1230 3.7 18:46:25 10° SW 18:50:21 55° SE 18:54:19 10° ENE
Cosmos 1892 Rocket 3.8 18:47:38 10° N 18:52:00 50° ENE 18:56:20 10° SSE
STARLINK-1234 3.3 18:50:46 10° WSW 18:53:44 59° NNW 18:56:41 10° NE
USA 186 3.1 18:50:54 10° SE 18:53:45 25° ENE 18:56:36 10° NNE
CSL-04 Rocket 3.9 18:48:49 10° S 18:54:09 76° WSW 18:59:27 10° NNW
STARLINK-1096 4.4 18:50:51 10° NW 18:54:37 38° NNE 18:58:22 10° E
ARGOS Delta rocket 4.3 18:49:53 10° SE 18:54:43 47° ENE 18:59:49 10° N
STARLINK-1243 3.6 18:51:05 10° SW 18:55:03 61° SE 18:59:02 10° ENE
Meteor 2-21 Rocket 4.4 18:49:26 10° N 18:55:31 82° E 19:01:35 10° S
Meteor 2-16 Rocket 4.5 18:50:01 10° N 18:56:11 70° E 19:02:18 10° SSE
Cosmos 1626 3.3 18:53:24 10° NNE 18:56:25 23° ENE 18:59:25 10° SE
NOSS 2-1 (E) 4.2 18:53:09 10° WSW 18:56:25 45° NW 18:59:59 10° NNE
STARLINK-1079 4.3 18:55:19 10° NW 18:59:07 40° NNE 19:02:49 10° E
STARLINK-1236 3.5 18:55:42 10° SW 18:59:42 66° SE 19:03:42 10° ENE
Okean 1-7 Rocket 3.7 18:55:37 10° N 18:59:55 51° ENE 19:04:11 10° SSE
Cosmos 1242 Rocket 4.1 18:56:59 10° NNW 19:00:13 38° W 19:03:27 10° SSW
STARLINK-1116 4.2 18:59:46 10° NW 19:03:36 42° NNE 19:07:08 12° E
SJ-11-01 4.3 18:59:56 10° SSE 19:04:33 65° ENE 19:09:14 10° N
H-2A R/B 2.3 19:00:28 10° SE 19:05:36 50° ENE 19:10:38 10° N
STARLINK-1269 3.5 19:05:04 10° SW 19:09:05 78° SE 19:13:08 10° ENE
STARLINK-1118 2.2 19:07:36 10° WNW 19:09:48 63° SW 19:11:31 14° SE
ERBS 4.5 19:08:19 10° W 19:11:11 25° NNW 19:14:03 10° NNE
Cosmos 1544 Rocket 3.8 19:07:17 10° SSE 19:11:27 45° E 19:15:41 10° NNE
STARLINK-1094 4.0 19:08:44 10° NW 19:12:37 48° NNE 19:15:46 15° E
HJ-1C 3.7 19:10:20 10° S 19:13:39 70° W 19:17:01 10° NNW
STARLINK-1200 3.5 19:09:44 10° SW 19:13:47 85° SE 19:17:50 10° NE
Cosmos 1745 Rocket 4.0 19:07:46 10° N 19:14:09 88° E 19:20:23 10° S
Cosmos 2297 4.0 19:10:07 10° NNW 19:15:37 49° ENE 19:20:56 11° SE
USA 234 3.4 19:10:30 10° NE 19:16:55 56° SE 19:23:20 10° SSW
STARLINK-1117 3.9 19:13:14 10° NW 19:17:10 51° NNE 19:20:06 16° E
STARLINK-1192 3.5 19:14:23 10° SW 19:18:25 89° NW 19:22:29 10° NE
Meteor 2-5 Rocket 3.9 19:13:48 10° NNW 19:19:29 79° W 19:25:01 10° S
Cosmos 2237 Rocket 2.9 19:14:29 10° SW 19:20:01 59° WNW 19:25:36 10° NNE
Cosmos 1805 3.8 19:16:12 10° SSW 19:20:04 61° W 19:23:58 10° N
STARLINK-1078 3.9 19:17:42 10° NW 19:21:40 54° NNE 19:24:26 18° ESE
ADEOS Rocket 4.1 19:15:19 10° N 19:21:55 53° WNW 19:27:50 10° SW
STARLINK-1244 3.6 19:19:10 10° WSW 19:23:13 83° NW 19:27:17 10° NE
STARLINK-1201 4.0 19:20:32 10° WSW 19:23:42 46° NNW 19:26:53 10° NE
Cosmos 1302 Rocket 4.4 19:20:26 10° N 19:25:31 46° ENE 19:29:43 15° SE
STARLINK-1108 3.8 19:22:13 10° NW 19:26:13 58° NNE 19:28:47 20° ESE
Cosmos 1269 Rocket 3.9 19:22:05 10° SSW 19:27:21 75° ESE 19:32:40 10° NNE
Cosmos 2278 Rocket 3.5 19:22:29 10° NW 19:27:47 41° WSW 19:33:03 10° S
STARLINK-1138 3.7 19:23:52 10° WSW 19:27:55 77° NW 19:31:59 10° NE
CZ-2C R/B 3.5 19:24:43 10° NE 19:28:58 25° E 19:32:38 12° SE
STARLINK-1066 2.8 19:27:29 10° NW 19:30:39 87° NE 19:32:18 25° SE
STARLINK-1071 3.7 19:26:44 10° NW 19:30:44 62° NNE 19:33:08 23° ESE
STARLINK-1081 2.8 19:27:57 10° NW 19:31:04 88° NNE 19:32:41 26° SE
STARLINK-1070 2.8 19:28:23 10° NW 19:31:32 89° NE 19:33:06 26° SE
STARLINK-1124 3.7 19:27:37 10° NW 19:31:46 64° NNE 19:34:14 23° ESE
STARLINK-1069 2.8 19:28:48 10° NW 19:31:58 89° NNE 19:33:34 26° SE
STARLINK-1085 2.8 19:29:15 10° NW 19:32:25 90° WSW 19:34:00 27° SE
STARLINK-1143 3.8 19:28:39 10° WSW 19:32:42 72° NNW 19:36:46 10° NE
STARLINK-1086 2.8 19:29:45 10° NW 19:32:53 89° SSW 19:34:25 27° SE
STARLINK-1095 2.8 19:30:12 10° NW 19:33:19 88° SW 19:34:50 28° SE
CZ-4 R/B 4.4 19:31:20 10° SW 19:33:33 15° W 19:35:47 10° WNW
ARGOS 3.1 19:28:18 10° SSE 19:33:40 75° ENE 19:39:04 10° N
STARLINK-1077 2.8 19:30:38 10° NW 19:33:46 87° SW 19:35:16 28° SE
SL-8 R/B 4.5 19:29:35 10° WNW 19:34:11 46° N 19:38:02 14° ENE
STARLINK-1075 2.8 19:31:06 10° NW 19:34:13 87° SW 19:35:42 28° SE
STARLINK-1093 2.8 19:31:31 10° NW 19:34:40 86° SW 19:36:10 28° SE
Meteor 1-24 Rocket 3.8 19:29:17 10° NNW 19:34:49 79° W 19:40:10 10° S
STARLINK-1074 2.8 19:31:57 10° NW 19:35:07 85° SSW 19:36:36 28° SE
STARLINK-1110 3.6 19:31:15 10° NW 19:35:16 67° NNE 19:37:29 25° ESE
STARLINK-1087 2.8 19:32:27 10° NW 19:35:35 84° SW 19:37:00 29° SE
STARLINK-1088 2.8 19:32:54 10° NW 19:36:02 83° SW 19:37:26 29° SE
STARLINK-1115 2.8 19:33:19 10° NW 19:36:29 83° SW 19:37:55 29° SE
STARLINK-1076 2.8 19:33:45 10° WNW 19:36:55 82° SW 19:38:20 30° SE
STARLINK-1092 2.8 19:34:13 10° WNW 19:37:23 81° SW 19:38:47 30° SE
STARLINK-1080 2.8 19:34:42 10° WNW 19:37:50 80° SW 19:39:10 31° SE
MOS 1 4.2 19:32:20 10° SSE 19:37:58 86° ENE 19:43:40 10° NNW
STARLINK-1090 2.8 19:35:09 10° WNW 19:38:16 79° SW 19:39:36 31° SE
STARLINK-1089 2.8 19:35:36 10° WNW 19:38:44 79° SW 19:40:02 31° SE
SL-24 R/B 4.4 19:34:31 10° NNE 19:38:52 42° E 19:42:42 10° SSE
STARLINK-1107 2.8 19:36:03 10° WNW 19:39:11 78° SW 19:40:28 32° SE
Cosmos 1470 2.7 19:36:32 10° S 19:40:18 56° E 19:44:08 10° NNE
STARLINK-1241 4.0 19:39:11 10° WSW 19:43:09 60° NNW 19:47:06 10° NE
Cosmos 2315 Rocket 3.9 19:38:10 10° S 19:44:26 75° E 19:50:47 10° N
STARLINK-1122 3.5 19:40:24 10° NW 19:44:26 77° NE 19:46:17 31° ESE
SL-08 RB Rocket 3.6 19:40:53 13° SSE 19:44:51 68° ENE 19:49:24 10° N
SJ-6B 2.8 19:42:00 10° SSE 19:45:58 87° E 19:50:06 10° NNW
MetOp-A 4.3 19:42:29 17° SE 19:46:30 55° ENE 19:51:43 10° N
ISS -1.9 19:43:56 10° NW 19:46:42 23° N 19:48:11 17° NE
Resurs 1-3 4.0 19:44:44 25° SE 19:46:48 44° ENE 19:50:59 10° N
STARLINK-1239 4.1 19:43:48 10° WSW 19:47:45 56° NNW 19:51:30 11° NE
Cosmos 1758 3.3 19:44:10 10° S 19:48:12 64° E 19:52:16 10° NNE
STARLINK-1126 3.5 19:45:02 10° NW 19:49:04 83° NE 19:50:44 34° ESE
BREEZE M DEB (TANK) 4.5 19:39:17 10° SW 19:51:37 41° SSE 19:53:49 27° E
STARLINK-1240 4.2 19:48:26 10° WSW 19:52:22 53° NNW 19:55:55 12° NE
CZ-2C R/B 3.2 19:47:17 10° S 19:52:23 70° WSW 19:57:16 10° NNW
STARLINK-1082 3.5 19:49:35 10° NW 19:53:38 89° NE 19:55:08 38° SE
Resurs 01 Rocket 2.2 19:53:04 31° ESE 19:54:12 37° ENE 19:58:16 10° N
FREGAT/IRIS 3.9 19:52:27 10° SSW 19:54:56 35° W 19:57:28 10° NNW
Abrixas rocket 3.0 19:52:13 10° SW 19:54:13 31° S 19:54:13 31° S
Cosmos 2369 Rocket 3.0 19:50:44 10° N 19:55:55 34° NE 19:57:50 27° E
STARLINK-1216 4.4 19:53:06 10° WSW 19:57:00 49° NNW 20:00:22 13° NE
STARLINK-1100 3.5 19:54:09 10° NW 19:58:12 86° SW 19:59:31 41° SE
Meteor 2-15 Rocket 4.3 19:54:26 10° S 20:00:28 71° E 20:06:32 10° NNE
STARLINK-1237 4.5 19:57:48 10° WSW 20:01:41 47° NNW 20:04:52 14° NE
IRIDIUM 114 4.3 19:57:33 10° N 20:02:44 60° E 20:05:35 26° SSE
STARLINK-1083 3.5 19:58:46 10° WNW 20:02:48 80° SW 20:03:57 45° SE
SPOT 3 Rocket 3.5 20:00:43 18° SSE 20:04:40 86° ENE 20:09:54 10° NNW
Cosmos 1726 3.7 20:06:29 22° NE 20:06:29 22° NE 20:08:13 10° NNE
SL-14 R/B 4.4 20:02:52 10° NNW 20:06:45 45° W 20:10:35 10° SSW
STARLINK-1125 3.6 20:03:23 10° WNW 20:07:25 74° SW 20:08:23 49° SSE
Meteor 1-21 Rocket 4.1 20:03:31 10° N 20:09:04 63° ENE 20:11:31 33° SSE
Cosmos 1709 Rocket 4.4 20:05:35 10° NNW 20:11:42 61° W 20:17:43 10° S
STARLINK-1109 3.6 20:07:42 10° WNW 20:11:44 68° SW 20:12:32 52° SSE
IRIDIUM 103 4.2 20:06:41 10° N 20:11:56 73° E 20:14:45 28° SSE
STARLINK-1097 4.4 20:09:48 10° NW 20:13:44 40° NNE 20:14:29 36° NE
MOS 1 Rocket 3.5 20:08:55 10° NNE 20:14:08 67° E 20:19:07 12° S
STARLINK-1091 3.7 20:12:23 10° WNW 20:16:24 63° SW 20:17:02 53° S
Cosmos 1943 4.3 20:19:28 26° ENE 20:19:28 26° ENE 20:22:25 10° NE
Cosmos 292 Rocket 3.9 20:13:46 10° NNW 20:18:29 55° ENE 20:19:07 50° E
STARLINK-1099 4.3 20:14:47 10° NW 20:18:45 42° NNE 20:19:17 40° NE
Cosmos 1943 Rocket 2.1 20:15:50 10° NNW 20:21:21 67° ENE 20:22:51 47° SE
STARLINK-1104 4.2 20:19:46 10° NW 20:23:46 44° NNE 20:24:04 43° NE
Cosmos 2074 Rocket 3.9 20:18:00 10° N 20:24:16 68° E 20:26:45 38° SSE
STARLINK-1144 4.1 20:24:43 10° NW 20:28:44 47° NNE 20:28:50 47° NNE
STARLINK-1072 4.1 20:25:28 10° WNW 20:29:19 48° SW 20:29:27 48° SW
Cosmos 1953 2.3 20:29:29 60° SSW 20:30:07 77° W 20:34:06 10° N
IRIDIUM 106 4.4 20:24:58 10° N 20:30:13 78° W 20:32:57 29° S
Meteor 2-10 3.9 20:28:33 37° S 20:30:43 73° E 20:36:14 10° NNE
NOSS 3-3 (A) 3.8 20:25:47 10° SSW 20:31:25 58° ESE 20:37:43 10° NE
NOSS 3-3 (C) 3.8 20:25:53 10° SSW 20:31:31 57° ESE 20:37:49 10° NE
SPOT 1/Viking Rocket 4.5 20:32:06 32° ENE 20:32:06 32° ENE 20:36:18 10° N
Spot 2 Rocket 3.7 20:33:07 50° ENE 20:33:12 50° ENE 20:38:08 10° N
STARLINK-1103 4.1 20:29:40 10° NW 20:33:37 50° NNE 20:33:37 50° NNE
STARLINK-1096 4.2 20:29:57 10° WNW 20:33:44 44° SW 20:33:44 44° SW
SL-16 R/B 3.4 20:28:32 10° SW 20:33:53 42° WNW 20:39:15 10° NNE
Cosmos 2084 Rocket 3.6 20:30:59 10° NNW 20:35:19 63° NE 20:35:19 63° NE
STARLINK-1079 4.4 20:34:29 10° WNW 20:38:03 40° SW 20:38:03 40° SW
Cosmos 1610 Rocket 4.5 20:32:08 10° N 20:38:17 57° ENE 20:39:03 53° ESE
STARLINK-1101 4.1 20:34:40 10° NW 20:38:25 52° N 20:38:25 52° N
Aureole 3 4.3 20:38:26 22° SW 20:40:48 50° WNW 20:45:34 10° N
STARLINK-1102 4.2 20:39:37 10° NW 20:43:11 53° N 20:43:11 53° N
Aureole 2 Rocket 3.9 20:40:36 10° NNW 20:42:44 34° NNW 20:42:44 34° NNW
H-2A R/B 4.3 20:41:12 10° SW 20:45:15 22° W 20:49:16 10° NW
Terra 3.8 20:49:36 17° NE 20:49:36 17° NE 20:51:26 10° NNE
STARLINK-1111 4.3 20:44:35 10° NW 20:47:58 51° NNW 20:47:58 51° NNW
STARLINK-1073 4.4 20:49:34 10° NW 20:52:45 49° NNW 20:52:45 49° NNW
Cosmos 1603 3.5 20:53:25 43° SSW 20:55:21 88° ESE 21:01:01 10° NNE
Meteor 1-16 Rocket 4.1 20:54:16 56° SSW 20:55:24 81° W 21:00:52 10° N
ATLAS 2AS CENTAUR R/B 3.5 20:49:03 10° NNW 20:56:14 41° NE 20:57:41 37° ENE
Cosmos 1825 Rocket 4.0 20:54:03 10° NNW 20:57:49 59° NW 20:57:49 59° NW
USA 234 4.0 20:53:36 10° NE 20:59:53 52° NNW 21:06:10 10° WSW
MetOp-B 4.0 21:01:14 79° SW 21:01:27 81° WSW 21:06:51 10° NNW
Cosmos 2327 Rocket 4.4 20:56:08 10° N 21:02:26 89° W 21:03:23 67° S
CZ-2C R/B 3.7 21:04:33 10° N 21:09:24 42° WNW 21:14:10 10° SW
Cosmos 1992 Rocket 4.4 21:05:35 10° NNW 21:10:40 55° WSW 21:10:43 55° WSW
COSMOS 2455 4.3 21:06:19 10° NNW 21:11:09 25° NE 21:11:09 25° NE
Meteor 1-11 4.3 21:06:46 10° N 21:12:06 74° NNE 21:12:06 74° NNE
Cosmos 1295 Rocket 4.4 21:10:47 10° N 21:16:48 79° NE 21:16:48 79° NE
Meteor 2-17 Rocket 4.4 21:14:42 10° NNW 21:20:51 76° W 21:21:00 76° WSW
Cosmos 1656 Rocket 4.0 21:17:58 10° NNW 21:22:37 59° N 21:22:37 59° N
ISS -0.5 21:20:35 10° NW 21:21:09 14° NW 21:21:09 14° NW
ERS-1 Rocket 4.0 21:28:47 41° N 21:28:47 41° N 21:32:03 10° N
Resurs 01 Rocket 3.7 21:30:38 21° W 21:30:48 21° W 21:34:12 10° NW
Cosmos 2154 Rocket 4.4 21:29:42 10° NNW 21:35:55 57° W 21:36:22 55° WSW
Cosmos 2369 Rocket 3.3 21:34:44 10° NW 21:39:39 38° W 21:39:39 38° W
Cosmos 1943 4.4 22:01:06 37° WNW 22:01:19 38° WNW 22:06:36 10° N
Cosmos 1943 Rocket 4.3 22:00:55 10° WNW 22:04:24 18° W 22:04:24 18° W
NOSS 3-4 (A) 4.2 22:07:46 10° NW 22:13:24 62° NW 22:13:24 62° NW
NOSS 3-4 (C) 4.2 22:07:52 10° NW 22:13:29 62° NW 22:13:29 62° NW
Terra 4.3 22:28:29 19° NNW 22:28:29 19° NNW 22:29:57 10° NNW
ATLAS 2AS CENTAUR R/B 3.8 22:40:13 10° NW 22:45:08 40° WNW 22:45:08 40° WNW
